IRIDIUM 33 DEB

Satellite information

Favourite Embed

Satellite Type and Status

DEBRISIN ORBIT

Key statistics

Satellite IRIDIUM 33 DEB at a glance.

Uptime

10159

Days in orbit

Revolutions

≈ 14.5

Per day

Orbit

LEO

Low Earth Orbit

Inclination

86.3

Latest

Satellite identification and parameters

Extended collection of information and parameters for IRIDIUM 33 DEB.

Object identification

Identified? True

Debris? True

Object name: IRIDIUM 33 DEB

International designator: 1997-051YQ

Object number (NORAD): 38028

Object ID (CCSDS): 38028

Country: UNITED STATES OF AMERICA (US)

Current information (Y/N): Y

RCS size: SMALL

Orbital parameters

Period: 99.613 minutes

Inclination: 86.3237 deg

SMA: 7118.211 km

Apoapsis: 759.217 km

Periapsis: 720.934 km

RAAN: 71.2215 deg

Eccentricy: 0.0026891

Argument of periapsis: 309.7085 deg

Mean anomaly: 50.1746 deg

Mean motion: 14.45594556 rev/day

Mean motion (dot): 0.0000093 rev/day2

B* drag term: 0.00025668 1/REarth

Two-line elements (TLE)

Creation date: July 2, 2025, 5:47 p.m.

Reference frame: TEME

Reference center: EARTH

Epoch: July 2, 2025, 10:04 a.m. UTC

TLE line 0: 0 IRIDIUM 33 DEB

TLE line 1: 1 38028U 97051YQ 25183.42008616 .00000930 00000-0 25668-3 0 9991

TLE line 2: 2 38028 86.3237 71.2215 0026891 309.7085 50.1746 14.45594556631357

Live tracking on map

Real-time ground track for satellite IRIDIUM 33 DEB.

In-orbit conjunctions

A list of the most updated potential collisions computed for object IRIDIUM 33 DEB.

Target Orbit TCA Probability of collision Miss distance Type
DMSP 5D-2 F13 DEB SSO 2025-06-16 23:59:24 0.0001011045 202.0 (m) DEBRIS
CZ-6A DEB LEO 2024-12-16 04:22:24 0.0009334995 134.0 (m) DEBRIS
FENGYUN 1C DEB SSO 2024-09-28 00:23:51 0.000889264 325.0 (m) DEBRIS

Associated space launch

Iridium provides global mobile telecommunications services using a constellation of 66 low earth orbit satellites in a 86.4° inclined orbit. Although 77 satellites were originally envisioned for the system and spawned the name based on the 77th element in the periodic table, the system has been scaled back. Motorola's Satellite Communications Group designed and manufactured the Iridium satellites with Lockheed Martin providing the LM-700A spacecraft buses.

IRIDIUM 33 DEB was lifted into orbit during the mission ‘Proton-K/17S40 | Iridium 27 to 33’, on board a Proton-K/17S40 space rocket.

The launch took place on Sept. 14, 1997, 1:36 a.m. from 81/23 (81L).

For more information about the launch, click the button.

Launch to space Proton-K/17S40 | Iridium 27 to 33
Proton-K/17S40 | Iridium 27 to 33

Agency: N/A

Status: Launch Successful

Launch date: Sept. 14, 1997, 1:36 a.m. UTC

Rocket: Proton-K/17S40

Launch pad: 81/23 (81L)

Location: Baikonur Cosmodrome, Republic of Kazakhstan

...

Latest news about this satellite

There are no fresh news available about this satellite. Check back as we update our databases every day.


Newsletter sign-up

Weekly statistics, charts and insights to help you stay on top of the space industry.